RH
28 28 32 41 45 46 48 47 54 55 58 58 58 56 56 55 54 53 56 58 56 54 54 52 47 46 46 45 43 56 90 93 86 94 94 87 78 67 65 51 44 39 39
30 28 30 42 47 42 45 53 56 58 59 60 61 63 62 60 59 59 60 61 60 62 57 57 54 51 50 51 50 49 63 79 90 92 91 98 97 91 75 60 52 47 39
33 26 28 37 47 47 48 54 57 60 61 63 64 67 68 77 77 66 65 63 61 64 67 62 58 57 56 56 55 54 59 67 75 82 83 98 93 80 74 68 57 53 48
36 36 35 36 42 48 55 54 57 61 61 61 65 68 71 74 70 70 73 72 66 67 64 68 64 62 59 61 61 55 62 67 72 79 83 72 65 82 75 58 60 58 56
43 42 43 47 48 51 54 54 56 58 59 61 63 68 72 72 73 79 82 79 77 76 76 73 68 66 64 64 62 65 65 65 68 71 71 86 84 82 91 77 72 63 59
51 50 52 50 49 52 56 57 56 56 55 58 60 66 73 74 80 85 87 85 83 81 76 71 74 70 66 66 67 68 68 68 65 65 65 66 76 93 91 93 87 66 58
48 50 49 49 49 54 55 54 53 54 51 55 59 62 68 74 79 84 87 86 85 85 82 74 78 71 70 68 66 68 72 73 73 68 64 62 65 62 65 78 72 78 74
47 47 48 50 52 52 52 50 51 53 52 54 59 61 66 70 72 74 84 88 89 85 79 82 79 73 71 69 67 71 70 70 79 78 71 65 62 66 70 76 76 82 79
44 45 46 48 48 47 48 51 53 51 51 54 58 62 64 72 79 78 78 78 85 85 85 84 85 84 81 75 73 75 78 74 76 78 78 74 67 65 68 74 89 94 93
40 42 44 45 46 46 49 51 52 53 51 55 55 58 65 71 74 75 77 76 78 84 86 88 84 86 84 76 75 77 80 75 75 77 75 73 68 67 72 79 78 80 84
28 27 32 32 38 44 48 52 54 54 53 54 55 58 65 68 71 78 78 79 77 76 81 88 91 90 88 84 84 83 79 76 74 71 72 74 67 68 69 77 77 82 85
22 23 26 26 31 41 44 49 54 55 56 52 56 60 61 65 73 78 80 78 77 75 74 80 88 92 86 79 76 74 70 73 75 76 76 70 63 71 71 76 78 81 82
22 20 20 21 23 24 28 38 49 52 54 53 58 60 61 62 69 76 78 79 78 78 77 79 86 91 94 88 80 81 76 70 75 73 76 73 73 74 74 79 78 79 83
21 22 23 21 20 22 24 25 30 42 53 54 58 60 60 61 65 72 76 80 78 80 82 84 85 89 89 91 90 87 82 75 72 72 75 73 83 85 83 84 83 78 83
23 22 23 21 20 21 22 26 32 33 44 53 57 56 58 60 62 69 75 77 79 80 81 84 86 85 89 87 93 94 94 88 80 76 76 81 85 92 89 79 78 84 89
24 24 22 22 22 21 24 29 36 37 40 48 50 52 58 59 62 66 72 74 80 82 81 83 85 92 89 94 92 96 90 90 88 88 91 86 94 91 96 95 93 83 83
23 25 25 22 23 22 26 30 29 36 46 50 49 50 53 59 58 62 66 72 78 81 81 79 79 84 93 92 91 93 92 95 95 94 92 93 93 97 90 93 97 99 98
25 24 27 26 25 25 26 31 39 45 52 52 53 54 56 58 59 61 62 64 69 76 76 78 77 79 86 92 90 89 91 93 94 94 96 97 97 96 99 99 98 98 97
27 26 25 27 27 29 29 35 43 46 52 55 56 55 56 59 59 63 64 67 71 72 70 71 74 79 82 91 90 86 90 92 95 94 94 95 96 94 92 95 97 97 98
30 30 29 29 30 29 30 39 42 46 54 51 54 54 58 62 61 63 67 67 66 68 68 65 64 78 68 85 87 86 88 93 93 93 93 94 95 95 94 94 94 97 98
36 34 34 32 32 30 33 42 43 51 52 56 61 61 61 66 63 67 69 71 64 58 58 57 57 62 66 70 80 77 79 91 94 95 95 93 92 92 93 92 94 97 95
42 40 39 37 36 37 39 44 46 51 50 64 63 68 64 66 68 70 70 66 60 57 53 51 50 57 62 74 80 82 76 72 74 83 83 82 87 88 88 88 91 91 90
40 39 40 42 39 40 37 44 43 42 51 56 64 64 61 65 68 75 75 73 63 58 53 48 46 49 58 67 80 81 82 81 75 73 81 83 81 78 79 83 80 74 75
43 41 42 42 39 36 36 34 37 38 50 54 55 60 64 68 68 68 71 72 65 61 56 55 52 51 53 55 61 67 71 78 72 74 71 74 74 72 67 66 68 72 78
48 46 46 46 44 41 39 36 36 38 53 61 67 67 65 67 70 68 68 70 61 60 57 58 54 54 53 54 60 59 55 54 57 54 50 52 55 61 63 66 68 72 70
54 53 50 50 46 43 41 40 39 40 53 61 69 78 79 72 69 71 74 84 80 82 81 78 66 57 59 74 78 77 69 66 62 50 50 56 58 59 59 63 69 71 73
Wind_Speed
10 9 8 8 9 9 8 7 6 6 4 5 5 6 6 6 7 8 11 12 11 12 12 11 13 13 14 15 16 14 11 10 10 7 7 9 13 15 11 13 14 16 16
10 11 10 9 9 8 7 6 6 5 4 4 4 5 6 7 8 9 10 13 14 13 13 13 12 14 12 16 16 16 11 12 9 9 5 5 6 9 13 14 14 18 14
10 10 9 8 7 7 6 5 5 5 6 6 5 5 6 6 8 9 8 9 12 13 14 15 13 13 13 12 15 15 17 12 12 17 8 3 6 5 11 20 16 18 14
6 6 6 5 5 5 4 5 6 6 6 6 6 8 8 9 8 10 9 9 13 13 13 14 15 15 11 14 13 14 14 14 14 11 13 17 7 4 5 9 14 15 16
0 1 2 2 3 4 5 5 6 7 6 6 7 7 9 8 9 7 11 11 11 12 12 12 15 15 12 14 15 15 16 13 13 13 11 12 13 11 5 7 5 9 12
7 4 3 3 5 5 5 6 7 8 7 6 7 9 10 11 9 8 8 8 8 8 11 12 12 14 14 15 13 15 18 15 16 13 14 14 11 8 10 6 7 8 8
2 4 5 6 5 6 7 7 8 8 7 7 8 9 10 11 12 11 7 9 8 7 10 12 11 12 14 16 15 15 16 17 16 18 14 13 14 12 12 12 13 11 6
4 5 5 5 6 7 8 8 8 8 7 7 8 9 10 8 9 10 8 7 8 9 12 11 12 13 14 14 15 12 13 15 15 20 17 14 13 13 11 12 11 11 10
7 7 7 8 9 9 9 8 8 8 7 7 7 8 9 9 9 10 10 9 9 9 10 13 13 13 14 15 14 12 14 15 15 15 17 16 13 12 12 12 8 9 10
8 8 9 10 10 10 10 9 9 9 8 8 7 7 9 9 10 9 11 12 12 11 10 13 12 12 13 14 13 12 12 15 12 12 16 16 13 14 11 10 11 11 11
12 12 11 10 10 10 10 10 10 9 9 9 8 8 8 9 9 8 10 11 12 12 12 11 11 11 11 11 10 12 14 16 15 15 16 17 16 12 11 10 10 11 10
12 11 12 13 12 11 11 12 12 11 11 9 8 9 9 9 8 7 9 10 11 12 12 11 11 10 11 13 13 15 15 15 14 14 14 17 13 16 13 11 13 11 11
12 11 10 10 11 12 13 13 12 13 11 9 9 9 9 8 7 6 8 8 10 11 12 11 10 10 10 12 13 12 14 16 13 14 14 14 14 14 10 10 11 11 9
11 9 8 8 9 9 10 11 12 12 11 10 9 10 8 7 7 6 6 5 6 9 10 10 10 10 9 10 10 11 13 16 13 13 12 12 9 10 11 10 11 11 11
13 11 10 10 9 9 9 10 11 11 11 10 10 10 8 7 7 7 6 5 4 6 8 8 9 9 7 7 11 11 10 10 14 12 9 8 7 11 14 11 12 11 10
14 14 13 11 10 10 9 9 9 9 10 11 11 10 8 7 7 6 6 5 3 4 5 6 7 7 7 16 17 13 10 10 10 9 5 6 12 15 15 17 15 13 14
13 14 16 15 13 13 10 10 10 8 10 11 11 10 9 8 7 6 6 4 3 3 3 4 6 7 7 15 16 16 8 6 6 6 5 3 2 4 11 13 12 5 9
16 16 15 15 14 12 12 10 8 9 10 11 11 10 9 9 7 6 5 4 2 3 2 4 5 5 6 12 12 13 9 9 10 9 7 6 5 5 2 7 10 10 13
18 17 18 17 15 13 12 10 9 10 10 12 12 11 10 9 8 7 6 4 3 2 1 2 4 4 7 10 10 8 8 9 10 10 9 8 8 11 13 11 12 10 10
18 18 19 17 16 16 10 10 11 10 12 13 13 11 10 10 9 8 6 5 4 3 2 1 3 5 5 9 8 5 3 7 6 9 8 19 14 18 14 11 8 10 8
19 19 18 16 16 15 10 11 11 14 13 10 10 11 11 11 10 8 7 6 6 5 4 2 1 3 6 6 6 5 5 4 5 6 6 8 17 19 20 15 9 8 6
19 18 16 16 16 15 11 13 13 14 11 10 12 11 12 9 8 10 8 8 7 6 5 4 2 1 3 5 8 10 8 7 7 7 6 8 16 18 18 13 15 15 11
17 17 17 18 16 15 16 16 16 13 11 11 13 12 13 11 11 11 10 8 9 7 6 5 4 3 1 3 7 10 10 11 8 7 10 12 14 15 15 16 14 11 7
18 17 18 19 19 17 16 18 17 15 12 12 13 12 12 12 12 9 9 9 9 8 7 6 5 4 4 3 3 3 6 9 8 9 8 12 13 13 10 9 10 8 7
18 16 17 17 19 18 18 18 16 14 13 12 9 10 10 12 11 11 10 10 10 9 8 7 6 6 5 4 4 4 4 4 5 6 4 4 4 5 6 7 7 6 6
19 19 19 19 19 19 18 17 16 13 13 12 10 8 8 8 9 9 8 7 4 10 7 6 7 5 3 11 8 8 10 11 8 3 3 4 4 5 5 5 5 5 6
Wind_Direction
250 254 226 206 203 214 228 240 247 251 252 270 281 280 279 288 279 275 277 272 265 255 248 244 242 238 239 238 239 226 224 221 212 219 223 227 224 233 232 233 233 228 230
257 246 218 197 211 217 219 241 251 263 260 265 275 278 294 291 295 290 279 269 268 263 257 246 243 237 237 238 238 236 226 229 209 224 210 211 218 231 230 231 231 232 227
276 268 224 207 200 216 227 233 255 275 274 272 274 266 272 266 271 274 279 277 267 262 260 254 247 244 239 237 236 236 234 233 218 218 222 209 227 185 205 227 226 227 227
257 270 272 231 216 234 243 260 269 276 276 278 278 279 282 283 282 286 283 283 281 278 263 255 249 243 241 238 237 235 236 234 232 212 222 240 259 221 237 211 220 229 228
293 149 240 246 215 222 242 267 277 280 280 280 284 290 290 290 285 276 275 269 270 262 254 254 250 245 241 242 240 238 234 233 238 231 217 227 236 240 243 247 192 230 230
120 135 173 215 240 238 239 242 255 271 278 280 290 294 297 303 300 288 279 270 268 269 258 253 251 248 246 243 239 240 241 238 236 238 231 227 218 210 225 216 245 237 209
168 178 203 216 230 240 249 251 252 266 287 299 299 302 302 308 304 299 288 294 280 268 265 260 248 252 247 243 240 237 236 238 239 234 233 237 232 233 227 239 243 239 232
287 275 269 262 258 253 252 258 263 276 283 292 297 302 305 301 307 314 306 292 286 284 280 261 260 260 255 249 244 242 242 242 241 240 238 238 234 230 229 240 237 252 239
307 288 275 263 266 260 259 259 264 273 284 292 295 292 294 301 300 303 299 296 286 283 284 277 256 254 254 249 242 243 245 247 244 242 241 240 240 235 226 222 210 239 242
300 283 275 269 261 257 257 249 250 258 269 278 279 286 290 288 290 297 302 311 307 298 288 285 260 252 251 251 246 248 243 249 247 245 242 239 237 236 229 223 222 216 225
303 300 285 274 264 265 260 256 252 253 259 264 267 272 280 283 285 298 314 314 313 311 305 304 282 254 250 250 238 238 244 246 245 242 244 240 235 234 233 225 220 220 215
306 302 289 279 270 259 256 249 249 245 242 248 258 267 271 275 290 311 312 320 324 323 319 312 310 268 250 251 249 248 245 247 242 239 240 240 233 232 231 228 223 225 229
312 306 299 287 278 270 262 255 249 245 242 243 252 262 269 280 289 300 317 334 334 336 335 336 330 329 294 252 249 253 254 254 248 239 233 234 232 232 225 227 229 228 223
327 315 312 307 291 280 273 272 265 247 237 233 246 261 269 283 296 299 300 315 342 349 352 348 347 346 333 341 317 269 258 256 250 240 233 230 224 246 241 227 240 238 230
342 338 324 320 315 297 278 269 267 262 239 236 241 250 259 264 275 283 280 292 339 0 355 351 350 360 344 341 325 300 278 264 262 250 228 207 201 223 239 241 228 228 234
331 330 320 310 307 303 294 283 271 255 236 239 245 246 244 253 262 268 272 280 315 10 351 351 353 355 352 339 343 319 256 259 265 249 225 232 211 236 238 239 236 233 228
321 324 320 311 306 303 296 280 277 252 235 241 248 248 248 244 243 257 267 265 307 315 319 343 350 10 357 1 8 15 37 48 43 31 6 348 360 305 257 238 237 54 24
316 312 313 307 301 300 289 280 268 250 239 238 242 244 244 246 240 237 250 269 260 284 307 327 336 10 19 19 27 38 38 47 47 44 43 40 15 24 64 108 93 81 60
298 295 302 303 293 287 286 277 266 248 238 241 238 236 234 238 237 237 225 217 244 241 289 327 340 7 21 16 37 54 54 39 39 42 45 53 53 75 95 100 105 97 76
297 296 299 297 291 285 286 270 265 253 238 237 237 229 227 228 229 231 219 196 198 207 206 305 355 357 35 28 37 44 63 79 46 35 37 55 66 62 67 83 88 75 65
293 293 291 291 290 290 287 268 270 256 248 239 223 228 218 224 223 210 206 199 188 188 193 179 36 35 8 38 37 66 94 83 79 59 39 49 62 70 72 70 68 86 87
306 302 298 294 296 292 281 269 265 259 260 240 228 212 219 209 215 210 194 202 197 194 194 190 168 28 38 27 59 67 76 99 96 87 76 73 75 75 77 78 84 87 84
300 300 299 298 295 289 285 276 269 270 253 239 245 216 211 211 204 207 203 192 203 206 194 201 187 172 166 79 71 79 88 93 98 98 102 93 78 76 70 69 70 72 73
303 305 301 296 293 289 290 282 276 283 254 242 243 236 209 205 204 203 207 207 198 204 204 192 197 176 177 164 145 118 105 104 104 107 86 87 87 80 79 66 60 62 66
306 306 300 293 289 290 287 283 280 273 258 247 231 228 226 208 203 207 203 207 211 205 199 202 186 184 188 179 161 162 151 132 118 119 116 97 86 80 73 70 68 69 73
309 303 298 295 293 293 286 280 283 272 253 250 236 215 209 217 210 203 202 230 241 196 196 180 188 168 154 155 167 153 140 136 143 126 115 88 73 72 74 75 77 72 73